Littleton, CO (80125)

1:39 AM MST on December 07, 2016 (GMT -0700)
Chatfield Farms | | Change Station
Active Advisory: Winter Weather Advisory Active Notice: Local Storm Report

Elev 5577 ft 39.48 °N, 105.08 °W | Updated 19 seconds ago

Light Snow
Light Snow Mist
15.4 °F
Feels Like 15 °F
N
1.4
Wind Variable Wind from SSW
Gusts 5.3 mph

Today
High -- | Low -- °F
--% Chance of Precip.
Yesterday
High -- | Low -- °F
Precip. -- in
Pressure 29.84 in
Visibility 5.0 miles
Clouds Mostly Cloudy 3100 ft
Windchill 15 °F
Dew Point 11 °F
Humidity 82%
Rainfall 0.00 in
Snow Depth Not available.
7:07 AM 4:36 PM
Waxing Crescent, 50% visible
SPECI KAPA 070828Z 11007KT 5SM -SN BR BKN031 M10/M12 A2984 RMK AO2 PRESFR P0000 T11001117
Pressure 29.84 in
Visibility 5.0 miles
Clouds Mostly Cloudy 3100 ft
Windchill 15 °F
Dew Point 11 °F
Humidity 82%
Rainfall 0.00 in
Snow Depth Not available.
7:07 AM 4:36 PM
Waxing Crescent, 50% visible
SPECI KAPA 070828Z 11007KT 5SM -SN BR BKN031 M10/M12 A2984 RMK AO2 PRESFR P0000 T11001117

10-Day Weather Forecast

Almanac

Astronomy

Dec. 07, 2016 Rise Set
Actual Time
Civil Twilight
Nautical Twilight
Astronomical Twilight
Moon
Length of Visible Light
Length of Day
Tomorrow will be .
, % of the Moon is Illuminated

Today's Extremes

State Highs State Lows

Community

WunderPhotos

Upload Photos

1,956,104 photos uploaded!

WunderBlog® & News

Nearby

Air Quality

  Air Quality AQ Index Pollutant
Not available.

Snow Depth

Station Depth Elevation

Earthquake Activity

City Distance Mag. Time & Date
Minimum magnitude displayed is 2.5.

Coastal Water Temperatures

Place Temperature

Stations

Nearby Weather Stations

Station Location Temp. Windchill Dew Point Humidity Wind Precip. Elev Updated Type
                   

Watches & Warnings

Winter Weather Advisory
Issued: 5:23 PM MST Dec. 6, 2016 – National Weather Service

... Winter Weather Advisory remains in effect until noon MST
Wednesday...

* timing... light snow will start around rush hour and increase
in intensity through the evening and continue through
Wednesday afternoon.

* Snow accumulations... snowfall amounts of 2 to 5 inches will be
possible with higher amounts west of I-25.

* Impacts... roads will become snowpacked and slippery. Travel will
be hazardous tonight and Wednesday morning due to snowpacked
roads and reduced visibility.

Precautionary/preparedness actions...

A Winter Weather Advisory for snow means that periods of snow
will cause primarily travel difficulties. Be prepared for snow
covered roads and limited visibilities... and use caution while
driving.